CAPE
0 0 0 1 0 0 0 0 0 0 0 1 0 1 0 0 190 559 911 1186 1563 2089 2310 2324 2296 2486 3198 2315 2328 2218 3360 3179 3822 4000 3465 3691 4083 4034 3844 4411 3706 3705 3607 3600
0 0 0 0 0 0 0 0 0 0 0 3 11 0 17 41 294 689 1029 1127 1428 1600 2290 2743 2714 2765 2685 3134 3434 2815 4043 3780 4374 4561 4519 4545 4396 4284 4367 3894 3942 3953 3733 3653
0 2 1 0 0 0 0 0 0 0 0 14 0 0 0 88 112 193 302 591 1169 1203 1619 2939 2970 3062 3146 3158 3240 4416 4747 4337 4652 4884 4890 4979 4891 4827 4355 4167 4309 4163 3710 3316
0 0 0 0 0 0 0 0 0 0 0 0 0 0 0 11 31 33 42 165 699 1155 1694 2917 2938 3079 3088 3108 3899 3914 4506 4540 4817 4982 4928 5023 5028 5015 5173 4850 4338 4450 3057 2425
0 0 0 0 0 0 0 0 6 0 2 0 3 15 78 18 4 8 24 17 52 306 1075 1840 3264 3400 3504 3121 3193 3422 3850 4564 4796 4924 4982 4981 4941 5222 5161 4736 3770 2898 2421 1718
0 0 0 0 22 0 0 0 26 0 18 25 14 5 123 0 0 0 0 0 0 6 323 1116 1921 2700 3450 3447 3011 3265 3607 4591 4889 5040 5142 5164 5311 5073 4859 3751 2743 2137 1551 872
0 0 0 2 20 0 0 2 0 0 0 6 43 91 100 0 0 0 0 0 0 0 106 1019 1706 2316 3371 3534 3488 3406 3491 4224 4722 5115 5524 5236 5049 3672 3171 3312 2271 1419 540 370
14 5 5 45 8 4 16 0 0 1 2 8 21 1 0 0 0 0 0 0 0 0 3 297 1116 2066 2394 3406 3651 3702 4316 4391 4950 5180 4561 4379 3565 2863 3168 1670 1073 581 254 217
36 93 102 60 41 6 0 0 0 1 2 1 0 3 2 0 0 0 0 0 0 0 0 63 486 1350 2553 2793 3669 3587 2630 2624 3129 3392 3788 3240 2499 2657 1886 1186 867 425 173 6
22 1 12 19 28 17 22 14 3 4 3 0 0 0 0 4 1 0 0 0 0 0 0 136 220 722 1523 2736 3632 3460 1959 1170 666 2380 2767 2227 2170 2184 1851 1312 1074 561 28 0
38 35 7 3 10 16 5 3 5 20 35 28 18 8 13 19 21 0 6 11 31 22 20 73 317 544 1028 2131 2842 2701 1383 1066 833 775 2066 2102 39 512 191 0 187 327 0 0
54 25 17 8 13 3 3 6 26 46 49 59 61 49 40 34 31 20 5 11 84 156 122 102 201 422 833 1373 2424 2048 1263 804 743 523 74 238 0 1 0 0 0 0 0 0
17 11 12 19 14 11 14 15 0 6 29 35 28 44 62 57 57 30 14 35 31 82 204 423 382 594 822 1161 2131 1513 1277 681 267 265 111 10 0 0 0 0 0 0 0 0
61 72 36 34 28 43 47 34 47 36 31 44 54 101 65 81 135 390 157 481 532 693 908 814 737 854 938 992 1831 1249 1316 674 478 221 209 21 0 0 0 0 0 0 0 0
83 23 29 62 70 58 133 176 175 105 98 84 143 236 103 233 170 402 515 505 476 530 1184 966 1108 1101 1125 1040 1223 770 976 303 21 14 2 0 1 0 0 0 0 0 0 0
36 13 22 34 210 257 228 173 123 232 279 223 164 112 241 347 473 364 528 1249 1109 812 860 1089 1232 1222 1204 781 850 432 526 230 94 14 0 0 0 0 0 0 0 0 0 0
56 52 93 128 185 128 34 197 256 310 254 221 160 221 167 174 415 365 512 654 1146 1173 1348 1262 1415 1132 667 400 382 384 342 213 187 15 5 0 12 11 0 0 0 0 0 0
79 158 40 35 96 47 30 22 51 110 104 175 246 197 175 188 334 886 963 909 903 1043 1357 964 571 599 557 375 362 30 55 78 2 6 18 11 25 6 0 0 0 0 0 0
46 79 56 47 35 57 57 62 55 47 57 82 106 92 168 235 343 440 603 1014 934 1218 1183 373 0 1 2 49 8 23 3 2 0 4 2 1 0 0 0 0 0 0 0 0
137 94 35 41 55 52 45 9 3 6 4 14 62 124 110 227 322 616 866 1212 952 1754 952 331 25 2 2 0 0 0 2 5 4 3 2 3 0 0 0 0 0 0 0 0
73 71 71 13 1 4 5 18 177 103 72 150 163 146 233 263 729 936 1324 1703 1109 1019 899 3 7 10 5 1 1 0 1 0 2 4 4 0 0 0 0 0 0 0 0 1
87 12 44 43 39 21 4 136 179 192 239 266 300 400 465 714 734 1075 1126 1217 483 0 3 7 4 2 3 0 0 0 0 0 0 0 0 0 0 0 0 0 0 0 0 1
122 25 19 24 49 55 21 73 104 82 124 37 71 218 654 1079 1408 1240 617 59 10 1 4 3 1 0 0 0 0 0 0 0 0 0 0 0 0 0 0 0 0 0 0 0
122 97 56 21 78 107 35 13 30 60 70 73 31 28 16 875 106 664 74 0 0 1 4 1 0 0 0 0 0 0 0 0 0 0 0 0 0 0 0 0 0 0 0 0
147 195 142 174 147 31 108 82 46 47 35 46 15 13 4 14 6 7 6 3 0 1 0 0 0 0 0 0 0 0 0 0 0 0 0 0 0 0 0 0 0 0 0 0
194 66 97 138 246 366 114 95 33 37 46 40 22 11 7 7 5 5 2 1 1 3 4 2 0 1 0 0 0 0 0 0 0 0 0 0 0 0 0 0 0 0 0 0
26 4 24 43 61 133 13 157 6 30 30 48 22 14 3 1 1 1 0 1 0 0 3 0 0 0 0 0 0 0 0 0 0 0 0 0 0 0 0 0 0 0 0 0
CIN
0 0 0 0 0 0 0 0 0 0 0 0 -1 -62 0 0 -119 -100 -93 -76 -84 -82 -82 -45 -45 -63 -46 -62 -49 -48 -57 -67 -65 -53 -50 -39 -28 -32 -38 -22 -39 -20 -5 -2
0 0 0 0 0 0 0 0 0 0 0 0 -115 0 -259 -228 -137 -103 -112 -132 -158 -151 -127 -87 -75 -76 -95 -86 -66 -60 -44 -73 -49 -39 -28 -25 -22 -16 -16 -29 -27 -3 0 0
0 0 0 0 0 0 0 0 0 0 -1 -16 0 0 0 -247 -237 -220 -208 -215 -176 -191 -180 -91 -87 -75 -84 -100 -103 -51 -15 -63 -45 -29 -22 -12 -7 -2 -8 -11 -4 -4 -5 -20
0 0 0 0 0 0 0 0 0 0 0 0 0 0 0 -187 -382 -364 -367 -326 -226 -184 -153 -46 -56 -46 -71 -92 -70 -80 -46 -54 -42 -24 -20 -6 -2 0 0 0 0 -2 -35 -43
0 0 0 0 0 0 0 0 -1 0 -1 0 -221 -254 -18 -193 -365 -429 -425 -416 -399 -282 -144 -87 -11 -12 -29 -83 -87 -95 -85 -48 -44 -31 -8 -3 -1 0 0 -1 -11 -45 -42 -70
0 0 0 0 -24 0 0 0 -123 0 -124 -139 -55 -56 -20 0 0 0 0 0 0 -223 -191 -91 -62 -31 -11 -26 -59 -68 -61 -29 -22 -21 -11 -1 0 -2 -1 -10 -49 -46 -91 -158
0 0 0 0 -10 0 0 -8 0 0 0 -3 -7 -34 -81 0 0 0 0 0 0 0 -191 -67 -13 -12 -1 0 -7 -21 -7 -1 0 -2 0 -1 -3 -45 -48 -10 -30 -126 -231 -278
0 0 0 -28 -12 -1 -36 0 0 -1 0 0 0 0 0 0 0 0 0 0 0 0 -75 -147 -48 -10 -18 0 -2 -1 -14 -5 -1 0 -14 -47 -73 -88 -15 -164 -198 -245 -341 -335
-11 -5 -10 -18 -41 -61 0 0 0 0 0 0 0 0 0 0 0 0 0 0 0 0 0 -184 -106 -31 -2 -9 0 -3 -25 -33 -8 -2 -7 -66 -166 -109 -163 -246 -275 -317 -371 -248
0 -4 -9 -2 -6 -23 -15 -5 -1 0 0 0 0 0 0 0 0 0 0 0 0 0 0 -112 -116 -62 -19 -1 0 -1 -29 -66 -80 -1 -7 -20 -89 -97 -97 -201 -201 -288 -453 0
0 0 0 0 -1 -2 -7 -22 -13 0 0 0 0 0 0 0 0 0 -17 -15 -24 -47 -65 -74 -72 -51 -29 -1 0 -3 -32 -44 -129 -19 0 -2 -73 -88 -127 0 -117 -247 0 0
-3 -14 -8 0 0 0 0 0 0 0 0 0 0 0 0 0 0 0 0 -1 -20 -9 -30 -38 -38 -43 -17 -15 -1 0 -9 -36 -69 -131 -353 -183 0 0 0 0 0 0 0 0
0 0 0 0 -1 -15 0 0 -5 -19 -2 -11 -1 0 0 0 0 -2 0 -5 -32 -18 -2 -1 -1 -2 -11 -14 0 -4 -22 -37 -161 -149 -208 -156 0 0 0 0 0 0 0 0
-9 -7 -50 -7 -1 -33 -31 -12 -10 -10 -1 -1 -3 -17 0 -4 -15 0 0 0 0 0 0 0 0 0 -4 -9 0 -6 -10 -85 -115 -173 -160 -158 0 0 0 0 0 0 0 0
-6 -6 -44 -50 -65 -50 -6 -3 -9 -48 -55 -61 -31 -4 -24 -1 -12 -5 -4 0 0 0 0 0 0 0 0 -4 0 -34 -10 -172 -447 -433 -191 0 0 0 0 0 0 0 0 0
-54 -1 -1 -43 -3 0 0 -5 -18 -10 -5 -20 -27 -42 -3 0 -4 -21 -8 -1 -1 0 0 0 0 0 -2 -19 -2 -87 -66 -222 -372 -402 0 0 0 0 0 0 0 0 0 0
-26 -30 -5 -9 -4 -23 -2 -9 -2 -1 -5 -4 -23 -12 -20 -20 -2 0 -24 -4 -5 0 0 0 0 0 -17 -83 -107 -113 -102 -169 -205 -35 -6 0 -127 -1 0 0 0 0 0 0
-1 -3 0 0 -27 0 0 0 -1 -14 -40 -23 -15 -11 -10 -6 -3 0 0 -7 0 -2 0 -11 -29 -9 -18 -55 -72 -307 -248 -180 -1 -2 -165 -32 -16 -3 0 0 0 0 0 0
-8 -1 0 0 0 0 0 0 0 -5 -5 -33 -68 -54 -5 0 -1 -5 -1 -6 0 0 0 -44 0 0 0 -55 -38 -73 0 0 0 0 0 0 0 0 0 0 0 0 0 0
0 -6 0 0 0 0 0 0 0 -12 -1 0 0 -26 -22 -1 -1 -3 -1 -2 0 0 0 -29 -96 0 0 0 0 0 0 0 0 0 0 0 0 0 0 0 0 0 0 0
0 0 0 -7 -6 0 0 -12 0 -1 -4 -49 -25 -21 -1 -3 0 0 -1 0 -1 -3 -7 -22 0 0 0 0 0 0 0 0 0 0 0 0 0 0 0 0 0 0 0 0
0 -9 -1 -4 0 0 0 -1 -1 -1 -2 0 0 0 -1 0 0 -1 -2 -1 -23 0 0 0 0 0 0 0 0 0 0 0 0 0 0 0 0 0 0 0 0 0 0 0
0 -10 -2 -11 0 -1 -1 0 0 0 -2 -5 -3 -5 0 0 0 0 0 -80 0 0 0 0 0 0 0 0 0 0 0 0 0 0 0 0 0 0 0 0 0 0 0 0
0 -3 -6 -18 -6 0 -7 -10 0 0 0 -2 -1 0 -3 0 -26 0 -4 0 0 0 0 0 0 0 0 0 0 0 0 0 0 0 0 0 0 0 0 0 0 0 0 0
0 0 0 -1 -1 -19 0 0 -1 0 0 0 0 0 0 -31 0 0 0 0 0 0 0 0 0 0 0 0 0 0 0 0 0 0 0 0 0 0 0 0 0 0 0 0
0 0 0 -3 -2 0 -2 0 0 0 0 0 0 0 0 0 0 0 0 0 0 0 0 0 0 -13 0 0 0 0 0 0 0 0 0 0 0 0 0 0 0 0 0 0
-2 -17 0 0 0 -5 -41 0 -10 0 -1 0 0 0 0 0 0 0 0 0 0 -19 -3 0 0 0 0 0 0 0 0 0 0 0 0 0 0 0 0 0 0 0 0 0
Wind_Speed
19 20 18 12 15 13 14 13 15 14 17 14 12 11 8 8 11 11 10 10 11 12 12 10 8 8 8 12 14 15 14 15 15 14 14 13 13 12 12 11 11 10 9 8
20 20 17 22 18 19 19 19 20 19 19 15 9 6 9 8 9 10 11 13 13 14 11 12 10 10 10 10 11 12 13 14 12 13 13 12 12 12 11 11 10 9 8 5
19 15 18 25 19 21 18 21 19 20 16 6 5 6 5 7 8 10 12 13 12 13 12 10 10 10 12 12 11 11 12 13 12 12 13 12 11 10 11 10 10 8 7 5
15 18 23 15 16 14 10 14 17 15 12 6 6 8 4 10 8 8 10 12 14 14 14 11 11 8 10 12 12 13 12 13 13 13 13 12 11 10 10 10 9 6 7 5
15 16 20 17 8 8 12 13 7 8 3 1 5 9 1 9 7 8 10 10 12 14 15 13 11 10 7 10 14 14 14 13 13 14 13 13 12 11 10 9 9 8 6 6
13 18 19 13 11 9 6 11 13 8 7 7 7 10 7 9 9 10 10 11 12 13 15 13 13 13 9 9 13 13 14 13 12 13 13 13 12 11 9 11 10 9 7 7
14 15 19 14 8 3 10 4 7 8 7 7 8 9 15 12 11 11 11 12 13 13 11 15 14 12 13 12 12 12 13 11 11 12 12 12 13 12 12 11 9 10 9 7
13 17 21 11 4 7 8 5 7 7 9 10 9 11 13 14 13 13 13 13 13 12 12 11 14 11 13 13 12 10 6 8 12 14 12 15 17 13 12 13 12 11 10 9
10 11 6 3 4 4 6 8 10 8 8 12 14 15 15 13 15 14 15 13 12 12 12 12 12 12 14 14 13 10 8 6 6 6 12 15 15 14 13 13 12 11 10 9
14 15 15 9 2 4 14 14 10 14 16 17 20 20 18 15 15 14 15 14 13 13 12 11 12 14 14 12 14 8 6 7 12 9 10 11 9 13 12 12 12 11 9 10
15 16 17 16 16 14 15 16 17 17 19 20 21 21 21 17 17 17 15 15 13 13 12 13 11 12 13 12 11 5 2 4 7 9 12 11 11 4 8 14 8 8 8 8
6 10 13 14 16 20 21 22 21 21 21 21 18 18 19 18 17 17 17 16 14 14 15 14 12 12 12 12 9 7 7 5 5 3 6 5 8 8 28 18 23 24 19 8
11 14 15 17 17 18 20 17 16 18 17 15 18 19 21 18 17 17 18 18 17 17 16 14 13 12 12 10 11 7 11 8 8 7 5 5 7 8 13 8 21 14 9 13
8 13 16 16 14 14 18 22 21 18 19 17 20 16 20 19 18 17 16 16 16 15 15 15 13 13 11 11 12 7 10 12 10 8 9 8 8 8 10 10 11 10 2 3
13 11 15 15 14 17 16 17 20 16 14 15 17 19 19 19 14 14 13 16 15 16 15 12 11 14 10 10 10 9 8 8 8 7 7 9 9 11 9 8 8 9 10 7
17 17 17 15 17 21 21 20 20 20 18 17 16 14 20 20 14 11 13 12 11 12 13 11 12 11 5 9 10 8 7 13 12 9 8 10 11 11 10 9 8 8 7 7
17 18 19 21 21 22 21 22 19 21 20 21 21 18 20 18 18 16 10 13 14 8 11 11 10 8 6 9 9 7 6 7 12 10 9 7 6 7 9 8 8 7 6 3
16 16 17 20 21 17 18 20 18 22 23 23 22 19 20 20 17 18 13 11 13 6 8 6 7 8 7 6 3 3 4 8 8 7 2 3 5 5 8 8 9 8 6 4
14 15 21 20 15 16 17 19 21 21 22 23 23 21 21 21 17 17 15 11 11 11 7 5 5 6 5 8 6 4 8 8 11 9 9 10 7 5 4 7 8 9 9 6
16 16 18 16 16 18 18 20 21 19 18 17 21 20 18 19 16 16 15 12 10 8 7 10 10 9 7 12 13 9 10 9 7 11 9 9 6 9 5 5 7 6 8 5
15 16 17 15 18 20 16 16 14 12 13 16 15 16 17 15 16 14 11 8 8 7 10 16 8 7 6 9 10 10 8 8 7 9 7 9 10 10 7 7 8 7 7 7
11 10 14 16 18 16 16 17 14 13 8 10 10 10 10 12 12 12 10 5 7 13 8 8 7 12 9 13 7 7 9 9 7 7 7 8 7 7 8 8 8 8 6 6
10 8 11 14 15 15 15 16 16 16 15 11 11 11 10 8 7 7 4 7 9 11 9 8 16 17 12 6 8 6 8 10 10 9 7 6 7 8 9 9 8 8 8 7
10 8 10 10 11 12 14 15 14 13 15 14 12 10 9 7 5 4 9 10 19 14 12 11 11 11 8 9 9 8 7 8 8 7 6 5 6 8 9 9 9 9 9 9
10 11 10 10 10 7 11 11 11 11 13 8 10 10 6 6 6 6 8 10 17 16 12 16 12 10 5 6 9 9 10 10 9 7 8 8 8 9 9 9 9 9 7 8
7 8 7 10 9 7 8 7 7 10 11 9 9 8 10 8 10 10 10 12 12 12 10 9 8 10 9 9 10 11 10 11 10 9 9 9 9 8 8 8 8 6 6 6
5 5 9 8 10 7 7 9 7 9 10 11 11 10 12 11 13 11 11 7 7 8 11 11 11 11 11 9 9 10 9 9 9 9 9 8 7 7 8 8 7 6 6 6
Wind_Direction
281 290 295 291 276 266 265 271 269 285 295 313 338 4 344 346 353 356 0 1 359 348 331 297 239 230 229 214 213 203 191 195 197 202 202 202 199 209 215 214 220 227 225 224
277 283 284 281 262 267 271 273 273 275 278 292 42 2 351 355 354 2 9 7 360 352 330 315 262 243 235 228 234 220 189 198 197 195 199 201 203 201 205 208 213 209 216 225
264 263 271 262 257 257 268 273 267 267 278 30 346 10 337 13 13 8 4 0 0 348 336 320 292 248 239 230 225 232 202 197 198 193 197 189 190 195 199 202 200 186 189 127
275 284 258 273 291 319 313 303 309 305 304 25 359 336 309 71 21 4 8 356 353 353 349 333 319 267 249 239 223 223 220 203 198 194 193 183 188 192 188 188 177 151 135 156
259 255 265 266 254 265 267 263 345 315 308 284 346 325 182 78 11 1 353 345 344 340 340 357 346 327 297 255 248 221 216 211 202 192 189 185 190 186 174 153 130 132 137 163
251 265 268 279 52 21 312 248 26 355 325 324 328 279 72 3 346 348 342 340 341 336 330 355 352 328 310 277 245 230 226 209 199 187 186 182 174 153 141 140 132 140 133 112
237 250 263 292 74 68 252 47 2 355 334 312 300 337 329 325 336 337 335 342 343 338 345 347 337 348 327 298 271 253 237 205 189 182 171 160 136 130 139 148 146 120 137 144
245 261 263 26 307 275 43 2 343 331 328 319 309 306 306 312 320 323 325 331 338 337 346 337 328 337 323 309 308 287 287 182 193 180 168 148 138 141 152 127 131 144 157 170
325 336 37 23 54 41 327 324 313 296 304 311 301 297 297 304 310 314 313 324 321 326 332 335 332 332 319 312 313 276 248 161 166 161 159 156 145 149 143 147 155 165 174 165
279 288 299 308 84 295 301 300 321 305 301 296 297 297 292 293 300 305 306 303 310 312 316 317 327 319 305 321 304 264 196 187 171 184 179 158 154 152 165 169 169 162 172 173
280 279 292 298 312 335 313 302 292 287 288 289 287 285 288 287 287 288 290 290 291 298 305 307 306 306 305 306 300 242 162 216 243 136 163 156 79 85 46 5 328 157 166 155
319 349 317 311 317 318 307 298 294 293 284 281 279 280 278 277 280 280 279 280 283 285 291 289 294 295 297 297 289 241 185 160 156 189 115 150 104 83 79 64 2 33 17 82
318 326 304 302 297 287 294 303 306 307 309 292 285 289 286 281 281 281 280 274 272 273 279 287 287 284 287 284 280 249 189 176 159 164 166 156 119 129 107 62 96 47 26 70
296 292 288 298 305 300 299 297 294 277 270 280 281 270 273 274 275 272 268 267 265 269 271 274 278 279 283 283 272 257 222 164 170 171 165 156 153 146 140 156 143 134 173 107
305 312 303 294 303 297 292 303 290 275 277 294 301 290 273 273 277 282 282 271 267 266 264 273 287 278 270 271 264 271 220 178 161 147 141 148 168 155 167 170 163 134 134 148
299 298 291 305 300 304 302 295 295 290 291 281 279 273 286 280 264 272 280 263 264 264 282 278 274 279 303 260 257 255 215 188 156 160 155 160 165 167 164 155 134 149 148 128
314 319 323 314 304 304 297 296 288 284 280 284 282 276 280 282 281 265 266 270 269 230 265 279 287 288 267 253 238 242 188 189 165 153 171 156 175 163 155 143 142 136 116 45
335 334 313 318 311 302 287 288 284 285 286 286 285 283 273 264 269 264 252 257 265 272 268 269 282 282 257 226 174 125 129 149 143 128 133 157 142 147 146 154 140 127 114 125
306 331 328 310 301 294 288 288 289 291 285 277 272 268 265 259 252 263 252 244 247 248 225 207 114 76 84 103 80 89 93 94 102 101 98 77 64 26 2 141 130 133 140 144
326 322 323 316 304 300 296 293 285 275 269 265 268 261 256 256 250 247 248 240 234 246 162 164 150 117 100 101 97 91 88 93 100 113 118 108 131 117 200 113 122 127 105 133
327 330 332 326 317 310 300 293 296 280 271 282 254 248 245 248 252 249 244 242 233 202 142 143 142 134 125 123 124 118 123 115 127 117 152 128 142 140 161 157 120 135 127 132
322 348 331 317 315 319 327 327 340 338 327 330 313 284 256 258 254 252 264 194 111 113 121 127 128 119 116 107 98 104 119 123 139 127 114 148 148 150 133 119 124 120 146 141
326 333 311 309 315 322 319 344 349 347 348 344 334 319 296 272 260 245 156 121 126 116 115 116 131 121 119 116 119 134 144 141 139 141 170 148 149 136 137 148 141 141 139 136
314 295 285 294 313 325 337 337 331 334 335 338 335 324 300 268 57 49 102 120 122 116 113 116 119 129 124 126 127 133 115 99 109 118 81 83 120 122 122 147 141 137 140 167
311 315 312 325 336 326 329 334 343 344 334 334 342 328 334 90 92 95 97 100 111 113 115 120 116 87 69 92 115 117 126 130 131 136 152 148 136 145 139 134 131 141 149 134
354 331 346 335 332 12 1 6 354 347 354 21 20 37 63 68 87 84 80 93 97 110 122 143 159 148 144 142 137 133 120 117 130 132 136 136 127 129 136 121 130 149 128 124
23 307 358 349 3 36 13 32 6 3 16 17 33 48 57 61 61 65 68 78 105 147 158 155 153 131 127 138 116 117 130 121 125 131 127 134 139 136 136 150 155 144 146 145